EW4525 Weather Reports


time (UTC)temp
C
wind
direction
speed
KPH
gust
KPH
rain 1hr
cm
rain 24hr
cm
rain mn
cm
humidity
%
barometer
mb
20260507050530 7 236 0.0 3.2 0.00 0.38 0.00 93 971.9
20260507050026 7 241 0.0 3.2 0.00 0.38 0.00 93 972.3
20260507045526 7 239 0.0 4.8 0.00 0.38 0.00 93 972.4
20260507045025 7 239 0.0 6.4 0.00 0.38 0.00 93 971.9
20260507044021 7 263 0.0 1.6 0.00 0.38 0.00 93 972.4
20260507043519 7 142 0.0 0.0 0.00 0.38 0.00 93 972.4
20260507043016 7 139 0.0 0.0 0.00 0.38 0.00 93 972.3
20260507042514 7 133 0.0 0.0 0.00 0.38 0.00 93 972.2
20260507042014 7 131 0.0 3.2 0.00 0.38 0.00 93 972.0
20260507041012 8 244 0.0 1.6 0.00 0.38 0.00 93 971.8
20260507040513 8 244 0.0 1.6 0.00 0.38 0.00 93 971.7
20260507040011 8 244 0.0 0.0 0.00 0.38 0.00 93 971.7
20260507035509 8 244 0.0 1.6 0.00 0.38 1.17 93 971.6
20260507034509 8 244 0.0 1.6 0.00 0.38 1.17 93 971.8
20260507034002 8 244 0.0 1.6 0.00 0.38 1.17 93 971.8
20260507033454 8 244 0.0 0.0 0.00 0.38 1.17 93 971.9
20260507032948 8 244 0.0 1.6 0.00 0.38 1.17 93 972.0
20260507032442 8 244 0.0 4.8 0.00 0.38 1.17 93 972.0
20260507031937 8 248 0.0 4.8 0.00 0.38 1.17 93 971.9
20260507031431 8 248 0.0 3.2 0.00 0.38 1.17 93 972.0
20260507024901 8 140 0.0 3.2 0.03 0.38 1.17 93 972.1
20260507024354 8 123 0.0 4.8 0.03 0.38 1.17 93 972.0
20260507023848 8 290 0.0 9.7 0.05 0.38 1.17 93 972.1
20260507023342 8 286 0.0 9.7 0.05 0.38 1.17 93 972.1
20260507022330 8 279 0.0 0.0 0.05 0.38 1.17 93 972.1
20260507021824 8 279 0.0 0.0 0.05 0.38 1.17 93 972.0
20260507021318 8 279 0.0 0.0 0.08 0.38 1.17 93 972.0
20260507020813 8 279 0.0 0.0 0.10 0.38 1.17 93 972.2
20260507020307 8 279 0.0 0.0 0.15 0.38 1.17 93 972.1
20260507015800 8 279 0.0 0.0 0.15 0.36 1.14 93 971.9
20260507015254 8 279 0.0 0.0 0.15 0.36 1.14 93 972.1
20260507013736 8 279 0.0 0.0 0.15 0.33 1.12 93 971.9
20260507013231 8 279 0.0 0.0 0.15 0.33 1.12 93 971.9
20260507012219 8 279 0.0 0.0 0.18 0.33 1.12 93 972.0
20260507011713 8 279 0.0 1.6 0.18 0.33 1.12 93 971.9
20260507011206 8 279 0.0 4.8 0.15 0.30 1.09 92 971.8
20260507005648 9 70 0.0 6.4 0.05 0.20 0.99 92 971.7
20260507005143 9 61 0.0 6.4 0.05 0.20 0.99 92 971.6
20260507004638 9 46 0.0 3.2 0.05 0.18 0.97 92 971.5
20260507003625 9 155 0.0 6.4 0.05 0.18 0.97 92 971.4
20260507002612 10 194 0.0 8.0 0.03 0.15 0.97 92 971.1
20260507002106 10 187 0.0 8.0 0.03 0.15 0.94 92 970.9
20260507001600 10 150 0.0 6.4 0.03 0.15 0.94 92 971.0
20260507001055 10 146 0.0 6.4 0.03 0.15 0.94 92 970.7
20260507000549 10 113 1.6 9.7 0.03 0.15 0.94 92 970.5
20260507000043 10 111 0.0 9.7 0.05 0.15 0.94 92 970.5
20260506235537 11 281 0.0 3.2 0.10 0.15 0.94 92 970.4
20260506235030 11 164 0.0 1.6 0.08 0.13 0.91 92 970.0
20260506234524 11 193 0.0 6.4 0.13 0.13 0.91 92 970.0
20260506234019 11 220 0.0 6.4 0.13 0.13 0.91 92 970.0
20260506233513 11 287 0.0 1.6 0.13 0.13 0.91 92 969.9
20260506232500 12 144 0.0 3.2 0.13 0.13 0.91 92 969.7
20260506231954 12 105 0.0 0.0 0.13 0.13 0.91 92 969.6
20260506231449 12 215 0.0 0.0 0.13 0.13 0.91 91 969.3
20260506230943 12 275 0.0 1.6 0.13 0.13 0.91 91 969.2
20260506230437 12 275 0.0 1.6 0.13 0.13 0.91 91 969.1
20260506225934 13 289 0.0 11.3 0.08 0.08 0.89 90 969.1
20260506225434 13 295 0.0 11.3 0.05 0.05 0.84 89 968.9
20260506224935 15 103 0.0 6.4 0.05 0.05 0.84 91 968.7
20260506224440 15 272 0.0 4.8 0.00 0.00 0.79 92 968.4
20260506223933 15 184 0.0 4.8 0.00 0.00 0.79 92 968.0
20260506223431 15 196 0.0 1.6 0.00 0.00 0.79 92 967.9
20260506222929 15 232 0.0 4.8 0.00 0.00 0.79 92 968.0
20260506222429 15 265 0.0 4.8 0.00 0.00 0.79 92 968.0
20260506221928 15 286 0.0 6.4 0.00 0.00 0.79 92 968.1
20260506221426 15 254 0.0 6.4 0.00 0.00 0.79 92 967.9
20260506220925 15 169 0.0 8.0 0.00 0.00 0.79 92 968.1
20260506215925 15 298 0.0 1.6 0.00 0.00 0.79 92 968.1
20260506215422 15 177 0.0 1.6 0.00 0.00 0.79 92 968.1
20260506214921 15 199 0.0 1.6 0.00 0.00 0.79 92 968.2
20260506214421 15 163 0.0 3.2 0.00 0.00 0.79 92 968.1
20260506213419 15 271 0.0 6.4 0.00 0.00 0.79 92 968.1
20260506212912 15 313 0.0 6.4 0.00 0.00 0.79 92 968.2
20260506212413 15 279 0.0 8.0 0.00 0.00 0.79 92 968.2